OE6PLD-13 Weather Reports


time (UTC)temp
C
wind
direction
speed
KPH
gust
KPH
rain 1hr
cm
rain 24hr
cm
rain mn
cm
humidity
%
barometer
mb
20260506100627 23 266 11.3 16.1 0.08 0.08 0.00 43 1013.4
20260506100324 23 266 8.0 16.1 0.08 0.08 0.00 41 1013.1
20260506100021 23 266 1.6 16.1 0.08 0.08 0.00 43 1013.1
20260506095717 23 266 4.8 12.9 0.08 0.08 0.00 42 1013.3
20260506095414 23 266 3.2 22.5 0.08 0.08 0.00 42 1013.2
20260506095111 23 266 11.3 19.3 0.08 0.08 0.00 42 1013.2
20260506094807 23 266 11.3 12.9 0.08 0.08 0.00 40 1013.2
20260506094504 23 266 6.4 14.5 0.08 0.08 0.00 41 1013.2
20260506094200 23 266 9.7 9.7 0.08 0.08 0.00 43 1013.1
20260506093857 23 266 3.2 14.5 0.08 0.08 0.00 43 1013.4
20260506093554 23 266 3.2 9.7 0.08 0.08 0.00 41 1013.2
20260506093250 23 266 1.6 17.7 0.08 0.08 0.00 43 1013.4
20260506092947 23 266 4.8 12.9 0.08 0.08 0.00 44 1013.3
20260506092644 22 266 4.8 14.5 0.08 0.08 0.00 46 1013.3
20260506092340 23 266 3.2 6.4 0.08 0.08 0.00 44 1013.4
20260506092037 22 266 0.0 12.9 0.08 0.08 0.00 47 1013.5
20260506091734 22 266 1.6 17.7 0.08 0.08 0.00 45 1013.5
20260506091430 22 266 3.2 16.1 0.08 0.08 0.00 46 1013.5
20260506091127 22 266 11.3 17.7 0.08 0.08 0.00 46 1013.6
20260506090824 22 266 3.2 6.4 0.08 0.08 0.00 47 1013.9
20260506090520 22 266 3.2 19.3 0.08 0.08 0.00 47 1013.6
20260506090217 22 266 4.8 19.3 0.08 0.08 0.00 47 1013.6
20260506085913 22 266 4.8 19.3 0.08 0.08 0.00 48 1013.6
20260506085610 22 266 4.8 19.3 0.08 0.08 0.00 51 1013.7
20260506085307 22 266 4.8 16.1 0.08 0.08 0.00 51 1013.9
20260506085003 22 266 8.0 12.9 0.08 0.08 0.00 51 1013.8
20260506084700 22 266 1.6 9.7 0.08 0.08 0.00 49 1013.7
20260506084357 22 266 0.0 6.4 0.08 0.08 0.00 52 1013.7
20260506084053 22 266 0.0 6.4 0.08 0.08 0.00 52 1013.6
20260506083750 22 266 0.0 6.4 0.08 0.08 0.00 51 1013.6
20260506083447 21 266 0.0 4.8 0.08 0.08 0.00 53 1013.5
20260506083143 21 266 0.0 12.9 0.08 0.08 0.00 54 1013.6
20260506082840 21 266 8.0 12.9 0.08 0.08 0.00 53 1013.7
20260506082537 21 266 1.6 4.8 0.08 0.08 0.00 53 1013.8
20260506082233 21 266 1.6 4.8 0.08 0.08 0.00 55 1013.9
20260506081930 21 266 0.0 12.9 0.08 0.08 0.00 56 1013.7
20260506081626 20 266 8.0 12.9 0.08 0.08 0.00 57 1013.8
20260506081323 20 266 4.8 12.9 0.08 0.08 0.00 59 1014.0
20260506081020 20 266 6.4 12.9 0.08 0.08 0.00 60 1013.9
20260506080716 20 266 4.8 9.7 0.08 0.08 0.00 58 1014.0
20260506080412 20 266 0.0 8.0 0.08 0.08 0.00 60 1014.1
20260506080108 20 266 3.2 8.0 0.08 0.08 0.00 59 1014.0
20260506073338 20 266 0.0 6.4 0.08 0.08 0.00 60 1013.9
20260506073035 19 266 1.6 6.4 0.08 0.08 0.00 60 1013.7
20260506072732 19 266 1.6 6.4 0.08 0.08 0.00 62 1013.8
20260506072428 19 266 3.2 4.8 0.08 0.08 0.00 61 1013.9
20260506072125 19 266 0.0 6.4 0.08 0.08 0.00 62 1013.9
20260506071821 19 266 0.0 8.0 0.08 0.08 0.00 61 1014.1
20260506071518 18 266 1.6 9.7 0.08 0.08 0.00 62 1014.1
20260506071215 19 266 8.0 9.7 0.08 0.08 0.00 61 1014.0
20260506070911 19 266 1.6 6.4 0.08 0.08 0.00 61 1013.9
20260506070608 19 266 0.0 4.8 0.08 0.08 0.00 63 1013.9
20260506070305 18 266 1.6 6.4 0.08 0.08 0.00 62 1013.8
20260506062321 16 266 0.0 0.0 0.08 0.08 0.00 69 1013.9
20260506062018 16 266 0.0 0.0 0.08 0.08 0.00 70 1014.1
20260506061714 15 266 0.0 3.2 0.08 0.08 0.00 73 1014.2
20260506061411 15 266 1.6 3.2 0.08 0.08 0.00 73 1014.0
20260506061107 15 266 0.0 1.6 0.08 0.08 0.00 73 1014.2
20260506060804 15 266 0.0 0.0 0.08 0.08 0.00 73 1014.1
20260506060501 15 266 0.0 1.6 0.08 0.08 0.00 73 1014.0
20260506060157 15 266 0.0 1.6 0.08 0.08 0.00 74 1014.1
20260506051304 10 266 1.6 4.8 0.08 0.08 0.00 87 1014.1
20260506051000 10 266 3.2 4.8 0.08 0.08 0.00 87 1014.3
20260506050657 10 266 3.2 4.8 0.08 0.08 0.00 88 1014.3
20260506050354 10 266 1.6 3.2 0.08 0.08 0.00 89 1014.4
20260506044837 9 266 3.2 4.8 0.08 0.08 0.00 89 1014.1
20260506044533 9 266 4.8 4.8 0.08 0.08 0.00 90 1014.4
20260506044230 9 266 3.2 4.8 0.08 0.08 0.00 90 1014.2
20260506043927 9 266 3.2 4.8 0.08 0.08 0.00 90 1014.3
20260506043623 8 266 3.2 3.2 0.08 0.08 0.00 91 1014.2
20260506043320 8 266 1.6 3.2 0.08 0.08 0.00 91 1014.4
20260506043017 8 266 0.0 0.0 0.08 0.08 0.00 91 1014.3
20260506042713 8 266 0.0 0.0 0.08 0.08 0.00 92 1013.9
20260506042410 8 266 0.0 0.0 0.08 0.08 0.00 92 1014.1
20260506042107 8 266 0.0 0.0 0.08 0.08 0.00 92 1014.1
20260506041803 8 266 0.0 0.0 0.08 0.08 0.00 93 1014.1
20260506041500 8 266 0.0 0.0 0.08 0.08 0.00 93 1014.1
20260506041157 8 266 0.0 0.0 0.08 0.08 0.00 93 1014.2
20260506040853 8 266 0.0 0.0 0.08 0.08 0.00 93 1014.1
20260506040550 7 266 0.0 0.0 0.08 0.08 0.00 93 1014.0
20260506040246 7 266 0.0 0.0 0.08 0.08 0.00 92 1014.1
20260506035943 8 266 0.0 0.0 0.08 0.08 0.00 93 1014.1
20260506035640 8 266 0.0 0.0 0.08 0.08 0.00 93 1014.1
20260506035336 8 266 0.0 0.0 0.08 0.08 0.00 93 1014.1
20260506035033 8 266 0.0 0.0 0.08 0.08 0.00 93 1014.0
20260506034730 8 266 0.0 0.0 0.08 0.08 0.00 93 1014.1
20260506034426 8 266 0.0 0.0 0.08 0.08 0.00 93 1014.1
20260506034123 8 266 0.0 0.0 0.08 0.08 0.00 93 1014.1
20260506033820 8 266 0.0 0.0 0.08 0.08 0.00 92 1014.2
20260506033516 8 266 0.0 0.0 0.08 0.08 0.00 92 1014.0
20260506033213 8 266 0.0 0.0 0.08 0.08 0.00 92 1013.9
20260506032910 8 266 0.0 0.0 0.08 0.08 0.00 92 1013.9
20260506032606 8 266 0.0 0.0 0.08 0.08 0.00 92 1014.0
20260506032305 8 266 0.0 0.0 0.08 0.08 0.00 92 1014.0
20260506032000 8 266 0.0 0.0 0.08 0.08 0.00 92 1014.0
20260506031656 8 266 0.0 0.0 0.08 0.08 0.00 93 1013.9
20260506031353 8 266 0.0 0.0 0.08 0.08 0.00 92 1014.0
20260506031049 8 266 0.0 0.0 0.08 0.08 0.00 92 1013.9
20260506030746 8 266 0.0 0.0 0.08 0.08 0.00 92 1014.1
20260506030443 8 266 0.0 0.0 0.08 0.08 0.00 93 1014.0
20260506030139 8 266 0.0 0.0 0.08 0.08 0.00 93 1013.8
20260506025836 8 266 0.0 0.0 0.08 0.08 0.00 93 1013.9
20260506025533 8 266 0.0 0.0 0.08 0.08 0.00 93 1013.7
20260506025229 8 266 0.0 0.0 0.08 0.08 0.00 92 1014.0
20260506024926 8 266 0.0 0.0 0.08 0.08 0.00 93 1013.9
20260506024623 8 266 0.0 0.0 0.08 0.08 0.00 92 1013.8
20260506024319 8 266 0.0 0.0 0.08 0.08 0.00 92 1014.0
20260506024016 8 266 0.0 0.0 0.08 0.08 0.00 92 1013.9
20260506023712 8 266 0.0 0.0 0.08 0.08 0.00 92 1013.7
20260506023409 8 266 0.0 0.0 0.08 0.08 0.00 92 1013.6
20260506023106 8 266 0.0 0.0 0.08 0.08 0.00 92 1013.7
20260506022802 8 266 0.0 0.0 0.08 0.08 0.00 92 1013.8
20260506022459 8 266 0.0 0.0 0.08 0.08 0.00 92 1013.7
20260506022156 8 266 0.0 0.0 0.08 0.08 0.00 92 1013.7
20260506021852 8 266 0.0 3.2 0.08 0.08 0.00 92 1013.4
20260506021549 8 266 1.6 3.2 0.08 0.08 0.00 92 1013.6
20260506021246 8 266 1.6 3.2 0.08 0.08 0.00 92 1013.5
20260506020942 8 266 0.0 0.0 0.08 0.08 0.00 92 1013.4
20260506020639 8 266 0.0 0.0 0.08 0.08 0.00 92 1013.7
20260506020335 8 266 0.0 0.0 0.08 0.08 0.00 93 1013.5
20260506020032 8 266 0.0 1.6 0.08 0.08 0.00 92 1013.5
20260506015729 8 266 0.0 0.0 0.08 0.08 0.00 92 1013.4
20260506015425 8 266 0.0 0.0 0.08 0.08 0.00 92 1013.5
20260506015122 8 266 0.0 0.0 0.08 0.08 0.00 91 1013.4
20260506014819 8 266 1.6 3.2 0.08 0.08 0.00 91 1013.2
20260506014515 8 266 1.6 3.2 0.08 0.08 0.00 92 1013.3
20260506014212 8 266 0.0 3.2 0.08 0.08 0.00 92 1013.5
20260506013909 8 266 1.6 3.2 0.08 0.08 0.00 92 1013.4
20260506013605 8 266 0.0 0.0 0.08 0.08 0.00 91 1013.4
20260506013302 8 266 0.0 0.0 0.08 0.08 0.00 91 1013.4
20260506012958 8 266 0.0 3.2 0.08 0.08 0.00 91 1013.3
20260506012655 8 266 1.6 3.2 0.08 0.08 0.00 91 1013.3
20260506012352 8 266 1.6 3.2 0.08 0.08 0.00 91 1013.1
20260506012049 8 266 3.2 3.2 0.08 0.08 0.00 91 1013.3
20260506011745 8 266 0.0 0.0 0.08 0.08 0.00 91 1013.2
20260506011442 8 266 0.0 0.0 0.08 0.08 0.00 91 1013.4
20260506011138 8 266 0.0 0.0 0.08 0.08 0.00 90 1013.2
20260506010835 8 266 0.0 0.0 0.08 0.08 0.00 90 1013.3
20260506010532 8 266 0.0 1.6 0.08 0.08 0.00 90 1013.0
20260506010228 9 266 0.0 3.2 0.08 0.08 0.00 89 1013.1
20260506005925 9 266 1.6 4.8 0.08 0.08 0.00 90 1013.1
20260506005622 9 266 0.0 0.0 0.08 0.08 0.00 90 1013.1
20260506005318 9 266 0.0 0.0 0.08 0.08 0.00 90 1013.2
20260506005015 9 266 0.0 0.0 0.08 0.08 0.00 90 1013.2
20260506004712 9 266 0.0 0.0 0.08 0.08 0.00 90 1013.0
20260506004408 9 266 0.0 0.0 0.08 0.08 0.00 89 1013.0
20260506004105 9 266 0.0 1.6 0.08 0.08 0.00 89 1013.4
20260506003802 9 266 0.0 3.2 0.08 0.08 0.00 89 1013.2
20260506003458 10 265 1.6 4.8 0.08 0.08 0.00 88 1013.2
20260506003155 10 261 3.2 4.8 0.08 0.08 0.00 88 1012.9
20260506002851 10 258 3.2 4.8 0.08 0.08 0.00 88 1013.1
20260506002548 10 253 1.6 3.2 0.08 0.08 0.00 88 1013.0
20260506002245 10 247 1.6 3.2 0.08 0.08 0.00 88 1013.0
20260506001941 10 240 3.2 3.2 0.08 0.08 0.00 87 1013.1
20260506001638 10 232 3.2 4.8 0.08 0.08 0.00 87 1013.0
20260506001335 10 224 1.6 4.8 0.08 0.08 0.00 87 1013.0
20260506001031 10 214 3.2 4.8 0.08 0.08 0.00 88 1013.0
20260506000728 10 195 0.0 0.0 0.08 0.08 0.00 87 1013.0
20260506000425 10 168 0.0 0.0 0.08 0.08 0.00 87 1013.2
20260506000121 10 147 0.0 0.0 0.08 0.08 0.00 87 1013.2
20260505235818 10 135 0.0 1.6 0.08 0.08 0.00 86 1013.0
20260505235515 11 125 0.0 1.6 0.08 0.08 0.00 86 1013.1
20260505235211 11 116 0.0 0.0 0.08 0.08 0.00 86 1013.2
20260505234908 11 114 0.0 3.2 0.08 0.08 0.00 85 1013.1
20260505234605 11 113 1.6 3.2 0.08 0.08 0.00 85 1012.9
20260505234301 11 110 0.0 3.2 0.08 0.08 0.00 85 1013.1
20260505233958 11 109 0.0 3.2 0.08 0.08 0.00 85 1012.9
20260505233654 11 107 1.6 1.6 0.08 0.08 0.00 85 1013.2
20260505233351 11 106 0.0 3.2 0.08 0.08 0.00 85 1013.0
20260505233048 11 102 0.0 0.0 0.08 0.08 0.00 85 1013.1
20260505232744 11 102 0.0 0.0 0.08 0.08 0.00 85 1013.0
20260505232441 11 101 0.0 0.0 0.08 0.08 0.00 85 1013.3
20260505232138 11 99 0.0 0.0 0.08 0.08 0.00 85 1013.2
20260505231834 11 97 0.0 0.0 0.08 0.08 0.00 84 1013.2
20260505231531 11 97 0.0 0.0 0.08 0.08 0.00 83 1013.1
20260505231228 11 98 0.0 1.6 0.08 0.08 0.00 83 1013.1
20260505230924 12 99 0.0 1.6 0.08 0.08 0.00 83 1013.0
20260505230621 12 100 0.0 0.0 0.08 0.08 0.00 82 1013.0
20260505230318 12 102 0.0 3.2 0.08 0.08 0.00 82 1013.1
20260505230014 12 104 1.6 6.4 0.08 0.08 0.00 80 1013.0
20260505225711 12 103 4.8 6.4 0.08 0.08 0.00 79 1013.2
20260505225407 13 102 1.6 6.4 0.08 0.08 0.00 78 1013.2
20260505225104 13 102 1.6 4.8 0.08 0.08 0.00 78 1013.2
20260505224801 14 101 0.0 3.2 0.08 0.08 0.00 76 1013.0
20260505224457 14 102 0.0 0.0 0.08 0.08 0.00 75 1013.1
20260505224154 14 105 0.0 3.2 0.08 0.08 0.00 75 1013.1
20260505223850 15 109 0.0 4.8 0.08 0.08 0.00 75 1012.9
20260505223547 15 112 1.6 6.4 0.08 0.08 0.00 75 1012.9
20260505223244 15 116 1.6 9.7 0.08 0.00 0.00 74 1012.8
20260505222940 15 113 0.0 8.0 0.08 0.00 0.00 74 1012.6
20260505222637 15 115 3.2 8.0 0.08 0.00 0.00 74 1012.9
20260505222334 15 112 3.2 12.9 0.08 0.00 0.00 74 1012.9
20260505222030 15 108 3.2 12.9 0.08 0.00 0.00 74 1012.8
20260505221727 15 102 1.6 9.7 0.08 0.00 0.00 74 1012.9
20260505221423 15 102 3.2 9.7 0.08 0.00 0.00 74 1012.9
20260505221120 15 99 0.0 8.0 0.08 0.00 0.00 74 1013.0
20260505220817 15 98 0.0 6.4 0.08 0.00 0.00 74 1012.9
20260505220513 15 98 1.6 8.0 0.08 0.00 0.00 74 1012.9
20260505220210 14 95 0.0 6.4 0.08 0.00 0.00 75 1012.8
20260505215907 14 96 4.8 6.4 0.08 0.00 0.00 75 1012.9
20260505215603 14 94 0.0 3.2 0.08 0.00 0.00 75 1013.0
20260505215300 14 95 0.0 3.2 0.08 0.00 0.00 75 1012.9
20260505214957 15 97 0.0 3.2 0.08 0.00 0.00 74 1013.1
20260505214653 14 98 0.0 3.2 0.08 0.00 0.00 74 1013.1
20260505214350 15 100 0.0 9.7 0.08 0.00 0.00 74 1013.1
20260505214047 14 99 6.4 9.7 0.08 0.00 0.00 75 1012.9
20260505213743 14 98 0.0 4.8 0.08 0.00 0.00 75 1012.7
20260505213440 14 100 0.0 12.9 0.08 0.00 0.00 74 1013.0
20260505213137 14 95 1.6 4.8 0.08 0.00 0.00 76 1012.9
20260505212833 13 95 3.2 4.8 0.08 0.00 0.00 76 1013.0
20260505212530 13 94 0.0 0.0 0.08 0.00 0.00 76 1013.0
20260505212226 13 95 0.0 1.6 0.08 0.00 0.00 75 1012.9
20260505211923 14 97 0.0 3.2 0.08 0.00 0.00 74 1013.0
20260505211620 14 100 0.0 3.2 0.08 0.00 0.00 74 1013.0
20260505211316 15 103 0.0 3.2 0.08 0.00 0.00 73 1012.9
20260505211013 15 107 0.0 3.2 0.08 0.00 0.00 73 1012.9
20260505210710 15 108 3.2 4.8 0.08 0.00 0.00 73 1013.0
20260505210406 15 110 1.6 4.8 0.08 0.00 0.00 73 1013.0
20260505210103 15 121 0.0 4.8 0.08 0.00 0.00 73 1013.0
20260505205800 15 144 0.0 4.8 0.08 0.00 0.00 73 1012.8
20260505205456 15 225 0.0 4.8 0.08 0.00 0.00 73 1012.9
20260505205153 15 249 0.0 4.8 0.08 0.00 0.00 73 1012.8
20260505204850 15 257 0.0 1.6 0.08 0.00 0.00 73 1012.9
20260505204546 15 257 0.0 1.6 0.08 0.00 0.00 73 1012.8
20260505204243 15 256 0.0 6.4 0.08 0.00 0.00 72 1012.9
20260505203940 15 256 0.0 6.4 0.08 0.00 0.00 72 1013.0
20260505203636 15 258 3.2 4.8 0.08 0.00 0.00 72 1013.0
20260505203333 15 259 0.0 3.2 0.08 0.00 0.00 71 1013.0
20260505203029 15 261 0.0 3.2 0.08 0.00 0.00 71 1013.1
20260505202726 15 260 0.0 3.2 0.08 0.00 0.00 71 1013.2
20260505202423 15 260 0.0 0.0 0.08 0.00 0.00 71 1013.2
20260505202119 15 258 0.0 3.2 0.08 0.00 0.00 71 1013.4
20260505201816 15 256 0.0 4.8 0.08 0.00 0.00 70 1013.3
20260505201513 15 256 0.0 4.8 0.08 0.00 0.00 70 1013.1
20260505201209 15 254 0.0 6.4 0.08 0.00 0.00 69 1013.3
20260505200906 15 253 0.0 9.7 0.08 0.00 0.00 69 1013.4
20260505200603 15 254 8.0 9.7 0.08 0.00 0.00 69 1013.4
20260505200259 16 254 6.4 14.5 0.08 0.00 0.00 69 1013.0
20260505195956 16 254 0.0 14.5 0.08 0.00 0.00 68 1013.2
20260505195653 16 255 3.2 12.9 0.08 0.00 0.00 68 1013.1
20260505195349 16 255 0.0 12.9 0.08 0.00 0.00 68 1013.1
20260505195046 16 256 0.0 9.7 0.08 0.00 0.00 68 1013.2
20260505194743 16 257 4.8 8.0 0.08 0.00 0.00 68 1013.2
20260505194439 16 258 3.2 8.0 0.08 0.00 0.00 67 1013.1
20260505194136 16 259 0.0 8.0 0.08 0.00 0.00 68 1013.2
20260505193832 16 259 0.0 8.0 0.08 0.00 0.00 67 1013.0
20260505193529 16 259 0.0 12.9 0.08 0.00 0.00 66 1013.1
20260505193226 16 260 1.6 12.9 0.08 0.00 0.00 66 1012.9
20260505192922 16 260 0.0 14.5 0.08 0.00 0.00 66 1013.1
20260505192619 16 260 1.6 16.1 0.08 0.00 0.00 66 1013.0
20260505192316 16 260 3.2 14.5 0.08 0.00 0.00 65 1012.8
20260505192013 16 260 1.6 19.3 0.08 0.00 0.00 65 1012.9
20260505191709 16 259 4.8 20.9 0.08 0.00 0.00 65 1012.8
20260505191406 16 259 11.3 20.9 0.08 0.00 0.00 65 1012.8
20260505191102 16 259 8.0 19.3 0.08 0.00 0.00 64 1012.9
20260505190759 16 259 16.1 19.3 0.08 0.00 0.00 64 1013.0
20260505190455 16 259 12.9 17.7 0.08 0.00 0.00 64 1012.8
20260505190152 16 259 3.2 20.9 0.08 0.00 0.00 64 1012.8
20260505185849 16 259 3.2 20.9 0.08 0.00 0.00 64 1012.8
20260505185545 16 259 0.0 20.9 0.08 0.00 0.00 63 1012.8
20260505185242 16 260 4.8 20.9 0.08 0.00 0.00 63 1012.8
20260505184938 16 261 3.2 14.5 0.08 0.00 0.00 64 1012.8
20260505184635 17 262 0.0 12.9 0.08 0.00 0.00 63 1012.8
20260505184332 17 263 8.0 16.1 0.08 0.00 0.00 62 1012.7
20260505184028 17 263 0.0 20.9 0.08 0.00 0.00 62 1012.9
20260505183725 17 263 6.4 12.9 0.08 0.00 0.00 62 1013.0
20260505183422 17 264 4.8 16.1 0.08 0.00 0.00 62 1013.0
20260505183118 17 265 3.2 22.5 0.08 0.00 0.00 62 1012.8
20260505182815 17 266 11.3 22.5 0.08 0.00 0.00 61 1012.8
20260505182512 17 266 4.8 16.1 0.08 0.00 0.00 61 1012.6
20260505182208 17 266 1.6 17.7 0.08 0.00 0.00 61 1012.5
20260505181905 17 266 14.5 17.7 0.08 0.00 0.00 60 1012.7
20260505181602 17 266 1.6 24.1 0.08 0.00 0.00 60 1012.9
20260505181258 17 266 11.3 24.1 0.08 0.00 0.00 60 1012.8
20260505180955 17 266 3.2 14.5 0.08 0.00 0.00 60 1012.7
20260505180652 17 266 3.2 17.7 0.08 0.00 0.00 60 1012.7
20260505180348 17 266 4.8 17.7 0.08 0.00 0.00 59 1012.5
20260505180045 18 266 11.3 17.7 0.08 0.00 0.00 59 1012.6
20260505175741 18 266 3.2 14.5 0.08 0.00 0.00 59 1012.8
20260505175438 18 266 4.8 17.7 0.08 0.00 0.00 58 1012.7
20260505175135 18 266 1.6 19.3 0.08 0.00 0.00 58 1012.6
20260505174831 18 266 14.5 19.3 0.08 0.00 0.00 57 1012.7
20260505174528 18 266 3.2 9.7 0.08 0.00 0.00 57 1012.8
20260505174225 18 266 4.8 20.9 0.08 0.00 0.00 56 1012.7
20260505173921 19 266 6.4 16.1 0.08 0.00 0.00 56 1012.7
20260505173618 19 266 1.6 16.1 0.08 0.00 0.00 55 1012.8
20260505173315 19 266 4.8 16.1 0.08 0.00 0.00 55 1012.8
20260505173011 19 266 9.7 16.1 0.08 0.00 0.00 55 1012.7
20260505172708 19 266 1.6 16.1 0.08 0.00 0.00 54 1012.8
20260505172405 20 266 1.6 17.7 0.08 0.00 0.00 54 1013.0
20260505172101 20 266 11.3 17.7 0.08 0.00 0.00 53 1012.8
20260505171758 20 266 1.6 17.7 0.08 0.00 0.00 52 1012.9
20260505171455 20 266 11.3 17.7 0.08 0.00 0.00 52 1012.9
20260505171151 21 266 1.6 14.5 0.08 0.00 0.00 51 1012.9
20260505170848 20 266 3.2 16.1 0.08 0.00 0.00 51 1012.9
20260505170545 20 266 8.0 27.4 0.08 0.00 0.00 51 1012.8
20260505170241 20 266 4.8 16.1 0.08 0.00 0.00 51 1013.1
20260505165938 20 266 4.8 22.5 0.08 0.00 0.00 51 1013.0
20260505165634 21 266 8.0 22.5 0.08 0.00 0.00 51 1013.0
20260505165331 20 266 0.0 19.3 0.08 0.00 0.00 51 1012.9
20260505165028 20 266 4.8 16.1 0.08 0.00 0.00 51 1013.1
20260505164724 21 266 6.4 14.5 0.08 0.00 0.00 50 1013.2
20260505164421 21 266 6.4 16.1 0.08 0.00 0.00 50 1012.9
20260505164118 21 266 12.9 16.1 0.08 0.00 0.00 49 1012.7
20260505163814 20 266 0.0 9.7 0.08 0.00 0.00 51 1013.1
20260505163511 20 266 4.8 14.5 0.08 0.00 0.00 51 1012.8
20260505163207 20 266 3.2 19.3 0.08 0.00 0.00 50 1013.1
20260505162904 20 266 1.6 20.9 0.08 0.00 0.00 51 1013.3
20260505162601 19 266 11.3 22.5 0.08 0.00 0.00 52 1013.1
20260505162257 19 266 14.5 30.6 0.08 0.00 0.00 52 1013.2
20260505161954 19 266 3.2 30.6 0.08 0.00 0.00 53 1012.9
20260505161651 19 266 12.9 35.4 0.08 0.00 0.00 52 1013.3
20260505161347 19 266 25.7 35.4 0.08 0.00 0.00 52 1013.4
20260505161044 19 266 9.7 22.5 0.08 0.00 0.00 52 1013.4
20260505160740 19 266 3.2 20.9 0.08 0.00 0.00 52 1013.4
20260505160437 19 266 9.7 29.0 0.08 0.00 0.00 52 1013.4
20260505160134 20 266 17.7 29.0 0.08 0.00 0.00 51 1013.5
20260505153100 20 266 12.9 16.1 0.08 0.00 0.00 50 1013.3
20260505152757 20 266 3.2 22.5 0.08 0.00 0.00 50 1013.4
20260505152454 20 266 9.7 29.0 0.08 0.00 0.00 50 1013.6
20260505152150 20 266 3.2 19.3 0.08 0.00 0.00 49 1013.4
20260505151847 20 266 8.0 16.1 0.08 0.00 0.00 48 1013.6
20260505151543 20 266 11.3 19.3 0.08 0.00 0.00 49 1013.4
20260505151240 20 266 8.0 19.3 0.08 0.00 0.00 48 1013.6
20260505150937 21 266 11.3 19.3 0.08 0.00 0.00 47 1013.4
20260505150633 21 266 8.0 12.9 0.08 0.00 0.00 47 1013.5
20260505150330 21 266 3.2 22.5 0.08 0.00 0.00 47 1013.5
20260505140526 22 266 11.3 22.5 0.08 0.00 0.00 46 1013.4
20260505140222 22 266 6.4 20.9 0.08 0.00 0.00 45 1013.6
20260505130115 24 266 3.2 14.5 0.08 0.00 0.00 42 1013.5
20260505124902 22 266 11.3 30.6 0.08 0.00 0.00 44 1013.9
20260505124558 23 266 11.3 30.6 0.08 0.00 0.00 44 1013.6
20260505124255 24 266 4.8 20.9 0.08 0.00 0.00 43 1013.8
20260505123952 24 266 4.8 14.5 0.08 0.00 0.00 42 1013.6
20260505123648 23 266 0.0 14.5 0.08 0.00 0.00 43 1013.6
20260505123345 23 266 4.8 30.6 0.08 0.00 0.00 43 1013.6
20260505123042 23 266 4.8 30.6 0.08 0.00 0.00 42 1013.8
20260505122738 23 266 6.4 27.4 0.08 0.00 0.00 41 1013.7
20260505122435 24 266 17.7 30.6 0.08 0.00 0.00 41 1013.6
20260505122132 24 266 4.8 30.6 0.08 0.00 0.00 39 1013.6
20260505121828 24 266 4.8 24.1 0.08 0.00 0.00 38 1013.7
20260505121525 25 266 9.7 30.6 0.08 0.00 0.00 38 1013.6
20260505121222 25 266 25.7 30.6 0.08 0.00 0.00 37 1013.5
20260505120918 26 266 4.8 19.3 0.08 0.00 0.00 35 1013.5
20260505120615 25 266 4.8 30.6 0.08 0.00 0.00 35 1013.4
20260505120312 25 266 11.3 24.1 0.08 0.00 0.00 35 1013.4
20260505120008 26 266 14.5 17.7 0.08 0.00 0.00 35 1012.0
20260505115705 26 266 8.0 20.9 0.08 0.00 0.00 33 1011.7
20260505115401 26 266 8.0 20.9 0.08 0.00 0.00 34 1012.0
20260505115058 26 266 4.8 19.3 0.08 0.00 0.00 33 1011.9
20260505114755 26 266 9.7 24.1 0.08 0.00 0.00 34 1011.9
20260505114451 26 266 8.0 24.1 0.08 0.00 0.00 34 1012.1
20260505114148 25 266 3.2 27.4 0.08 0.00 0.00 35 1012.0
20260505113845 26 266 20.9 27.4 0.08 0.00 0.00 34 1012.0
20260505113541 26 266 11.3 24.1 0.08 0.00 0.00 34 1012.2
20260505113238 26 266 6.4 22.5 0.08 0.00 0.00 34 1012.1
20260505112934 26 265 8.0 17.7 0.08 0.00 0.00 33 1012.0
20260505112631 26 263 4.8 24.1 0.08 0.00 0.00 33 1012.0
20260505112328 26 262 3.2 24.1 0.08 0.00 0.00 33 1011.9
20260505112024 27 262 6.4 12.9 0.08 0.00 0.00 32 1012.1
20260505111721 26 262 3.2 9.7 0.08 0.00 0.00 33 1011.9
20260505111418 26 263 3.2 14.5 0.08 0.00 0.00 34 1011.9
20260505111114 25 264 8.0 14.5 0.08 0.00 0.00 34 1012.1
20260505110811 25 266 1.6 24.1 0.08 0.00 0.00 38 1012.2
20260505110508 25 266 17.7 27.4 0.08 0.00 0.00 35 1011.8
20260505110204 25 265 8.0 17.7 0.08 0.00 0.00 34 1012.1
20260505102220 25 261 4.8 12.9 0.08 0.00 0.00 35 1012.5
20260505101917 25 262 4.8 14.5 0.08 0.00 0.00 34 1012.4
20260505101614 25 261 3.2 9.7 0.08 0.00 0.00 34 1012.6
20260505101310 25 260 4.8 8.0 0.08 0.00 0.00 33 1012.6
20260505101007 25 259 4.8 14.5 0.08 0.00 0.00 32 1012.7